Content
SEND FEEDBACK

Daily
Averages
Monthly
Summary
Canada

LONDON, ONTARIO


Home > North America > Canada > Ontario
Elevation: 912 feet     Latitude: 43 02N     Longitude: 081 09W

WEATHER
 
SELECT A DAY
Number of Records: 191,802;   Date Range: 1/1/95 - 9/22/14
 
SHARE

PRINT THIS DATA

[ ← Previous Day ]
WEATHER ALMANAC - JULY 30, 2014
[ Next Day → ]
[ °C ]   °F
Weather ElementAverageHighLow
Temperature62 °F69.8 °F (4:00 pm)55.4 °F (5:00 am)
Dewpoint55.7 °F59 °F (10:00 am)51.8 °F (5:00 pm)
Humidity80.7 %100 % (5:00 am)51 % (2:00 pm)
Barometer29.97 in30.01 in (10:00 pm)29.94 in (3:00 am)
Wind Speed6 mph12.7 mph (1:00 pm)
Wind Gust20.7 mph (4:00 pm)
Weather ElementAverage
Visibility11.3 mi
Wind DirectionWSW (250.7 °)

Weather ElementTotal
Precipitation---
Heating Degree Days2.4 (Base 65)
Growing Degree Days12.6 (Base 50)
Averaged from 27 records on July 30, 2014
WEATHER CONDITIONS BREAKOUT
WIND DIRECTION BREAKOUT
WEATHER BY HOUR - JULY 30, 2014
[ °C ]   °F
Local TimeTemperatureDewpointHumidityBarometerVisibilityWind DirectionWind SpeedGust SpeedPrecipitationEventsConditions
1:00 AM59.0 °F55.4 °F88 %29.95 in15.0 miWest (260°)5.8 mphMostly Cloudy
2:00 AM58.0 °F56.0 °F90 %29.95 in15.0 miWest (260°)5.8 mph
2:00 AM59.0 °F55.4 °F88 %29.95 in15.0 miWest (270°)5.8 mphScattered Clouds
3:00 AM57.2 °F55.4 °F94 %29.94 in15.0 miWest (260°)4.6 mphScattered Clouds
4:00 AM57.2 °F55.4 °F94 %29.94 in15.0 miVariable2.3 mphScattered Clouds
5:00 AM55.4 °F55.4 °F100 %29.95 in15.0 miWest (270°)3.5 mphPartly Cloudy
6:00 AM55.4 °F55.4 °F100 %29.95 in6.0 miWest (280°)4.6 mphPartly Cloudy
7:00 AM57.2 °F57.2 °F100 %29.96 in5.0 miWest (280°)3.5 mphMostly Cloudy
8:00 AM59.0 °F58.0 °F94 %29.97 in5.0 miWNW (290°)4.6 mphOvercast
8:00 AM59.0 °F57.2 °F94 %29.97 in5.0 miWNW (300°)3.5 mphOvercast
8:25 AM59.0 °F57.2 °F94 %29.98 in5.0 miWest (280°)5.8 mphOvercast
9:00 AM59.0 °F57.2 °F94 %29.98 in5.0 miWest (270°)5.8 mphOvercast
10:00 AM62.6 °F59.0 °F88 %29.99 in5.0 miVariable3.5 mphMostly Cloudy
11:00 AM66.2 °F59.0 °F78 %29.99 in6.0 miWNW (290°)4.6 mphMostly Cloudy
12:00 PM64.4 °F59.0 °F83 %29.99 in8.0 miWest (280°)6.9 mphRainLight Rain Showers
1:00 PM68.0 °F57.2 °F68 %29.99 in10.0 miWest (260°)12.7 mphMostly Cloudy
2:00 PM69.0 °F55.0 °F51 %29.98 in10.0 miWNW (300°)10.4 mph
2:00 PM68.0 °F55.4 °F64 %29.98 in10.0 miWNW (290°)10.4 mphMostly Cloudy
3:00 PM68.0 °F57.2 °F68 %29.98 in15.0 miWNW (300°)11.5 mphMostly Cloudy
4:00 PM69.8 °F55.4 °F60 %29.98 in15.0 miNW (310°)11.5 mph20.7 mphScattered Clouds
5:00 PM69.8 °F51.8 °F53 %29.98 in15.0 miNW (310°)8.1 mphScattered Clouds
6:00 PM69.8 °F51.8 °F53 %29.98 in15.0 miNW (310°)8.1 mphScattered Clouds
8:00 PM65.0 °F53.0 °F55 %29.99 in15.0 miNNW (340°)5.8 mph
8:00 PM64.4 °F51.8 °F64 %29.99 in15.0 miNNW (340°)6.9 mphMostly Cloudy
9:00 PM59.0 °F53.6 °F82 %30.00 in15.0 miNorth (350°)3.5 mphScattered Clouds
10:00 PM57.2 °F53.6 °F88 %30.01 in15.0 miCalmMostly Cloudy
11:00 PM57.2 °F55.4 °F94 %30.00 in15.0 miENE (70°)3.5 mphMostly Cloudy
Hourly data recorded from CYXU, located miles away from London, Ontario







STORIES FROM OUR PARTNERS